{"data":{"norad_id":56412,"intl_designator":"2023-061AQ","name":"STARLINK-6278","alt_names":[],"object_type":"PAYLOAD","status":"ACTIVE","operator":null,"country":"US","launch_date":"2023-05-04","launch_site_code":"AFETR","launch_vehicle":null,"mission":null,"orbit_class":"UNKNOWN","rcs_meters":null,"size_class":null,"mass_kg":null,"dimensions":null,"purposes":["comms"],"wikipedia_slug":null,"has_3d_model":false,"image_url":null,"decayed_at":null,"tle_current":{"epoch":"2026-05-24T23:21:05.141088Z","epoch_age_seconds":80677,"freshness":"FRESH","line1":"1 56412U 23061AQ  26144.97297617  .00000426  00000+0  25030-4 0  9990","line2":"2 56412  43.0046 116.0117 0001427 284.9235  75.1458 15.27573888168549","mean_motion":15.27573888,"eccentricity":0.0001427,"inclination_deg":43.0046,"raan_deg":116.0117,"arg_perigee_deg":284.9235,"mean_anomaly_deg":75.1458,"bstar":2.503e-5,"rev_number":16854,"period_min":94.267125885828,"perigee_km":482.08830375991,"apogee_km":484.046491495,"semimajor_km":6861.2043976275,"source":"CELESTRAK","updated_at":"2026-05-25T13:38:18.061028Z"}}}